Fremont, MI

6:09 AM EST on November 14, 2019 (GMT -0500)
Fremont

Weather History for KFFX - September, 2019

Change the Weather History Date:

Wednesday, September 4, 2019

  Actual Average (KMKG) Record (KMKG)
Temperature  
Mean Temperature 57 °F -  
Max Temperature 65 °F 75 °F 90 °F (1999)
Min Temperature 49 °F 55 °F 36 °F (1974)
Degree Days  
Heating Degree Days 8    
Growing Degree Days 7 (Base 50)    
Moisture  
Dew Point 49 °F    
Average Humidity 68    
Maximum Humidity 90    
Minimum Humidity 44    
Precipitation  
Precipitation 0.00 in - - ()
Sea Level Pressure  
Sea Level Pressure 30.05 in    
Wind  
Wind Speed 6 mph ()    
Max Wind Speed 13 mph    
Max Gust Speed -    
Visibility 10.0 miles    
Events      
Averages and records for this station are not official NWS values.
T = Trace of Precipitation, MM = Missing Value Source: Averaged Metar Reports

Daily Weather History Graph

Daily Weather History Graph

Search for Another Location

Airport or City:

Astronomy

Sep. 04, 2019 Rise Set
Actual Time 7:10 AM EDT 8:14 PM EDT
Civil Twilight 6:41 AM EDT 8:43 PM EDT
Nautical Twilight 6:06 AM EDT 9:18 PM EDT
Astronomical Twilight 5:29 AM EDT 9:54 PM EDT
Moon 1:22 PM EDT (9/4) 11:37 PM EDT (9/4)
Length of Visible Light 14h 01m
Length of Day
13h 03m
Waxing Crescent, 34% of the Moon is Illuminated
Sep 4
Waxing Crescent
Sep 5
First Quarter
Sep 14
Full
Sep 21
Last Quarter
Sep 28
New

Hourly Weather History & Observations

Time (EDT) Temp. Dew Point Humidity Pressure Visibility Wind Dir Wind Speed Gust Speed Precip Events Conditions
12:15 AM 65.8 °F 56.5 °F 72% 29.82 in 10.0 mi WNW 8.1 mph - N/A   Scattered Clouds
12:35 AM 64.9 °F 55.8 °F 72% 29.82 in 10.0 mi West 8.1 mph - N/A   Clear
12:58 AM 64.6 °F 55.2 °F 72% 29.83 in 10.0 mi WNW 9.2 mph - N/A   Clear
1:16 AM 63.7 °F 56.5 °F 77% 29.83 in 10.0 mi WNW 6.9 mph - N/A   Clear
1:55 AM 63.0 °F 53.8 °F 72% 29.85 in 10.0 mi WNW 8.1 mph - N/A   Clear
1:56 AM 63.0 °F 53.8 °F 72% 29.85 in 10.0 mi WNW 8.1 mph - N/A   Clear
2:19 AM 62.6 °F 53.2 °F 71% 29.86 in 10.0 mi WNW 6.9 mph - N/A   Clear
2:37 AM 61.9 °F 53.4 °F 74% 29.87 in 10.0 mi NW 6.9 mph - N/A   Scattered Clouds
2:55 AM 60.4 °F 55.4 °F 83% 29.87 in 10.0 mi NW 4.6 mph - N/A   Scattered Clouds
3:15 AM 60.3 °F 55.8 °F 85% 29.88 in 10.0 mi NW 5.8 mph - N/A   Clear
3:35 AM 60.8 °F 56.3 °F 85% 29.89 in 10.0 mi West 3.5 mph - N/A   Clear
3:40 AM 60.6 °F 55.9 °F 85% 29.89 in 10.0 mi West 3.5 mph - N/A   Clear
3:58 AM 60.8 °F 56.5 °F 86% 29.89 in 10.0 mi WNW 4.6 mph - N/A   Mostly Cloudy
4:16 AM 60.4 °F 56.7 °F 87% 29.90 in 10.0 mi WNW 4.6 mph - N/A   Overcast
4:35 AM 60.8 °F 57.4 °F 88% 29.91 in 10.0 mi WNW 6.9 mph - N/A   Overcast
4:36 AM 61.0 °F 57.4 °F 88% 29.91 in 10.0 mi WNW 5.8 mph - N/A   Overcast
4:55 AM 60.6 °F 57.2 °F 88% 29.92 in 10.0 mi WNW 5.8 mph - N/A   Overcast
5:19 AM 60.8 °F 55.2 °F 82% 29.93 in 10.0 mi NNW 8.1 mph - N/A   Overcast
5:37 AM 60.1 °F 51.3 °F 73% 29.94 in 10.0 mi NNW 9.2 mph - N/A   Overcast
5:55 AM 59.4 °F 52.2 °F 77% 29.95 in 10.0 mi NW 5.8 mph - N/A   Mostly Cloudy
6:15 AM 57.9 °F 53.1 °F 84% 29.96 in 10.0 mi NW 5.8 mph - N/A   Mostly Cloudy
6:16 AM 57.9 °F 53.1 °F 84% 29.96 in 10.0 mi NW 5.8 mph - N/A   Scattered Clouds
6:35 AM 57.6 °F 52.7 °F 84% 29.97 in 10.0 mi NNW 6.9 mph - N/A   Scattered Clouds
6:40 AM 57.2 °F 52.3 °F 84% 29.97 in 10.0 mi NNW 6.9 mph - N/A   Clear
6:58 AM 56.8 °F 52.0 °F 84% 29.98 in 10.0 mi NNW 4.6 mph - N/A   Clear
7:16 AM 55.4 °F 51.4 °F 87% 29.99 in 10.0 mi WNW 3.5 mph - N/A   Scattered Clouds
7:35 AM 56.8 °F 52.7 °F 86% 30.00 in 10.0 mi WNW 3.5 mph - N/A   Mostly Cloudy
7:55 AM 57.2 °F 53.4 °F 87% 30.01 in 10.0 mi WNW 3.5 mph - N/A   Overcast
7:56 AM 57.2 °F 53.6 °F 88% 30.01 in 10.0 mi WNW 3.5 mph - N/A   Overcast
8:18 AM 58.1 °F 53.8 °F 86% 30.02 in 10.0 mi NW 3.5 mph - N/A   Overcast
8:37 AM 59.0 °F 53.2 °F 81% 30.03 in 10.0 mi NW 5.8 mph - N/A   Overcast
8:55 AM 59.4 °F 52.3 °F 78% 30.04 in 10.0 mi NNW 4.6 mph - N/A   Overcast
9:15 AM 59.7 °F 49.8 °F 70% 30.05 in 10.0 mi North 11.5 mph - N/A   Overcast
9:16 AM 59.7 °F 49.5 °F 69% 30.05 in 10.0 mi North 12.7 mph - N/A   Overcast
9:35 AM 58.6 °F 48.6 °F 69% 30.05 in 10.0 mi North 6.9 mph - N/A   Overcast
9:40 AM 58.6 °F 49.1 °F 71% 30.06 in 10.0 mi NNE 4.6 mph - N/A   Overcast
9:58 AM 58.5 °F 46.9 °F 66% 30.07 in 10.0 mi NNE 8.1 mph - N/A   Overcast
10:16 AM 59.0 °F 47.7 °F 66% 30.07 in 10.0 mi North 5.8 mph - N/A   Overcast
10:35 AM 60.1 °F 48.0 °F 64% 30.08 in 10.0 mi North 8.1 mph - N/A   Overcast
10:55 AM 61.0 °F 48.0 °F 62% 30.08 in 10.0 mi North 6.9 mph - N/A   Overcast
11:19 AM 61.7 °F 46.9 °F 58% 30.09 in 10.0 mi NNW 9.2 mph - N/A   Overcast
11:37 AM 61.5 °F 44.8 °F 54% 30.09 in 10.0 mi NNW 10.4 mph - N/A   Overcast
11:55 AM 62.6 °F 45.3 °F 53% 30.10 in 10.0 mi North 8.1 mph - N/A   Overcast
11:56 AM 62.8 °F 45.3 °F 53% 30.10 in 10.0 mi North 6.9 mph - N/A   Overcast
12:15 PM 63.0 °F 45.7 °F 53% 30.10 in 10.0 mi NNW 3.5 mph - N/A   Overcast
12:35 PM 62.6 °F 45.0 °F 52% 30.10 in 10.0 mi North 5.8 mph - N/A   Overcast
12:58 PM 62.6 °F 44.8 °F 52% 30.11 in 10.0 mi North 4.6 mph - N/A   Overcast
1:16 PM 63.5 °F 44.4 °F 50% 30.11 in 10.0 mi North 5.8 mph - N/A   Overcast
1:35 PM 63.7 °F 45.3 °F 51% 30.11 in 10.0 mi NNW 8.1 mph - N/A   Overcast
1:36 PM 63.7 °F 45.3 °F 51% 30.11 in 10.0 mi NW 8.1 mph - N/A   Overcast
1:55 PM 64.2 °F 45.1 °F 50% 30.11 in 10.0 mi NNW 6.9 mph - N/A   Overcast
2:19 PM 65.3 °F 45.3 °F 48% 30.12 in 10.0 mi WNW 6.9 mph - N/A   Overcast
2:37 PM 65.8 °F 43.2 °F 44% 30.12 in 10.0 mi NNW 5.8 mph - N/A   Overcast
2:55 PM 63.7 °F 45.0 °F 51% 30.13 in 10.0 mi North 6.9 mph - N/A   Overcast
3:15 PM 63.5 °F 45.1 °F 51% 30.13 in 10.0 mi NNE 4.6 mph - N/A   Overcast
3:16 PM 63.5 °F 45.1 °F 51% 30.13 in 10.0 mi North 4.6 mph - N/A   Overcast
3:35 PM 65.7 °F 45.0 °F 47% 30.12 in 10.0 mi North 4.6 mph - N/A   Overcast
3:58 PM 65.3 °F 43.7 °F 46% 30.13 in 10.0 mi NW 9.2 mph - N/A   Overcast
4:16 PM 64.4 °F 44.2 °F 48% 30.13 in 10.0 mi NNW 8.1 mph - N/A   Mostly Cloudy
4:35 PM 65.1 °F 45.1 °F 48% 30.13 in 10.0 mi NW 5.8 mph - N/A   Overcast
4:36 PM 65.3 °F 45.0 °F 48% 30.13 in 10.0 mi NW 6.9 mph - N/A   Overcast
4:55 PM 65.3 °F 44.4 °F 47% 30.13 in 10.0 mi NNW 4.6 mph - N/A   Overcast
5:19 PM 65.3 °F 44.6 °F 47% 30.12 in 10.0 mi North 3.5 mph - N/A   Overcast
5:37 PM 65.1 °F 44.2 °F 47% 30.12 in 10.0 mi North 8.1 mph - N/A   Overcast
5:55 PM 63.7 °F 45.0 °F 51% 30.12 in 10.0 mi North 4.6 mph - N/A   Mostly Cloudy
5:56 PM 63.7 °F 45.1 °F 51% 30.12 in 10.0 mi North 3.5 mph - N/A   Mostly Cloudy
6:15 PM 63.1 °F 45.5 °F 53% 30.13 in 10.0 mi North 3.5 mph - N/A   Clear
6:35 PM 65.3 °F 44.6 °F 47% 30.13 in 10.0 mi NW 5.8 mph - N/A   Mostly Cloudy
6:58 PM 65.7 °F 43.7 °F 45% 30.13 in 10.0 mi NW 5.8 mph - N/A   Overcast
7:15 PM 64.9 °F 44.4 °F 47% 30.13 in 10.0 mi NW 5.8 mph - N/A   Overcast
7:35 PM 63.1 °F 44.4 °F 50% 30.13 in 10.0 mi NNW 8.1 mph - N/A   Mostly Cloudy
7:36 PM 63.0 °F 44.4 °F 51% 30.13 in 10.0 mi NNW 8.1 mph - N/A   Mostly Cloudy
7:55 PM 60.6 °F 45.1 °F 57% 30.14 in 10.0 mi NNW 5.8 mph - N/A   Scattered Clouds
8:19 PM 58.3 °F 46.4 °F 65% 30.15 in 10.0 mi NW 5.8 mph - N/A   Clear
8:37 PM 57.0 °F 46.4 °F 68% 30.15 in 10.0 mi NW 3.5 mph - N/A   Clear
8:55 PM 55.8 °F 46.6 °F 71% 30.16 in 10.0 mi NW 4.6 mph - N/A   Clear
8:56 PM 55.6 °F 46.4 °F 71% 30.16 in 10.0 mi NW 4.6 mph - N/A   Clear
9:15 PM 54.7 °F 47.7 °F 77% 30.16 in 10.0 mi NNW 3.5 mph - N/A   Clear
9:16 PM 54.7 °F 48.0 °F 78% 30.16 in 10.0 mi NNW 4.6 mph - N/A   Clear
9:35 PM 54.3 °F 47.5 °F 78% 30.16 in 10.0 mi NNW 3.5 mph - N/A   Clear
9:57 PM 54.0 °F 47.5 °F 79% 30.17 in 10.0 mi Calm Calm - N/A   Clear
10:16 PM 52.7 °F 48.4 °F 85% 30.16 in 10.0 mi Calm Calm - N/A   Clear
10:35 PM 52.3 °F 48.2 °F 86% 30.16 in 10.0 mi Calm Calm - N/A   Clear
10:36 PM 52.2 °F 48.4 °F 87% 30.16 in 10.0 mi Calm Calm - N/A   Clear
10:55 PM 52.0 °F 48.2 °F 87% 30.16 in 10.0 mi Calm Calm - N/A   Clear
10:56 PM 51.8 °F 48.0 °F 87% 30.16 in 10.0 mi Calm Calm - N/A   Clear
11:19 PM 49.6 °F 46.9 °F 90% 30.16 in 10.0 mi NW 3.5 mph - N/A   Clear
11:55 PM 50.7 °F 47.7 °F 89% 30.17 in 10.0 mi Calm Calm - N/A   Clear